Terminal Aerodrome Forecast
Issued by NWS

Home | Current Version | Previous Version | Text Only | Print | Product List | Glossary On
Versions: 1 2 3 4 5 6 7 8 9 10 11 12 13 14 15 16 17
000
FTUS43 KPAH 102300
TAFCGI
TAF
KCGI 102324Z 1100/1124 04006KT P6SM SCT150 BKN250
     FM110100 08002KT P6SM FEW060 SCT250
     FM111400 16005KT P6SM SCT250=

USA.gov is the U.S. government's official web portal to all federal, state and local government web resources and services.